Baton Rouge, LA

7:01 AM CST on December 03, 2016 (GMT -0600)
Baton Rouge Metro-Ryan

Weather History for KBTR - February, 2014

Change the Weather History Date:

Sunday, February 23, 2014

  Actual Average Record
Temperature  
Mean Temperature 60 °F 57 °F  
Max Temperature 64 °F 68 °F 82 °F (1909)
Min Temperature 55 °F 46 °F 25 °F (1939)
Degree Days  
Heating Degree Days 5 9  
Month to date heating degree days 295 254  
Since 1 July heating degree days 1649 1294  
Cooling Degree Days 0 1  
Month to date cooling degree days 20 21  
Year to date cooling degree days 20 34  
Growing Degree Days 10 (Base 50)    
Moisture  
Dew Point 57 °F    
Average Humidity 86    
Maximum Humidity 100    
Minimum Humidity 72    
Precipitation  
Precipitation 0.48 in 0.17 in 3.03 in (1979)
Month to date precipitation 6.03 4.21  
Year to date precipitation 8.12 9.93  
Snow  
Snow 0.00 in - - ()
Month to date snowfall T  
Since 1 July snowfall 0.4  
Snow Depth 0.00 in    
Sea Level Pressure  
Sea Level Pressure 29.99 in    
Wind  
Wind Speed 4 mph (NE)    
Max Wind Speed 10 mph    
Max Gust Speed 24 mph    
Visibility 6 miles    
Events Fog , Rain , Thunderstorm    
T = Trace of Precipitation, MM = Missing Value Source: NWS Daily Summary

Daily Weather History Graph

Daily Weather History Graph

Search for Another Location

Airport or City:

Trip Planner

Search our weather history database for the weather conditions in past years. The results will help you decide how hot, cold, wet, or windy it might be!

Date:

Astronomy

Feb. 23, 2014 Rise Set
Actual Time 6:37 AM CST 5:58 PM CST
Civil Twilight 6:12 AM CST 6:23 PM CST
Nautical Twilight 5:44 AM CST 6:51 PM CST
Astronomical Twilight 5:17 AM CST 7:19 PM CST
Moon 1:24 AM CST (2/23) 12:13 PM CST (2/23)
Length of Visible Light 12h 10m
Length of Day
11h 21m
Last Quarter, 38% of the Moon is Illuminated
Feb 23
Last Quarter
Mar 1
New
Mar 8
First Quarter
Mar 16
Full
Mar 23
Last Quarter

Hourly Weather History & Observations

Time (CST) Temp. Dew Point Humidity Pressure Visibility Wind Dir Wind Speed Gust Speed Precip Events Conditions
12:53 AM 57.9 °F 50.0 °F 75% 30.00 in 10.0 mi ENE 3.5 mph - 0.00 in Rain Light Rain
1:53 AM 57.9 °F 51.1 °F 78% 29.98 in 10.0 mi ENE 4.6 mph - 0.00 in   Overcast
2:19 AM 57.0 °F 51.1 °F 81% 29.96 in 10.0 mi East 4.6 mph - N/A   Mostly Cloudy
2:36 AM 57.9 °F 51.1 °F 78% 29.96 in 10.0 mi ENE 5.8 mph - N/A   Mostly Cloudy
2:53 AM 57.9 °F 51.1 °F 78% 29.96 in 10.0 mi NE 3.5 mph - N/A   Overcast
3:32 AM 57.9 °F 51.1 °F 78% 29.98 in 10.0 mi North 5.8 mph - N/A   Overcast
3:53 AM 57.9 °F 52.0 °F 81% 29.97 in 10.0 mi NNE 5.8 mph - N/A   Overcast
4:01 AM 57.9 °F 51.1 °F 78% 29.98 in 10.0 mi North 5.8 mph - N/A   Overcast
4:53 AM 57.0 °F 51.1 °F 81% 29.96 in 10.0 mi NE 8.1 mph - N/A   Overcast
5:25 AM 55.9 °F 53.1 °F 90% 29.97 in 10.0 mi NE 3.5 mph - 0.13 in Rain Light Rain
5:53 AM 55.9 °F 53.1 °F 90% 29.97 in 7.0 mi ENE 4.6 mph - 0.14 in Rain Rain
6:02 AM 55.9 °F 53.1 °F 90% 29.98 in 9.0 mi ENE 4.6 mph - 0.01 in Rain Light Rain
6:11 AM 55.0 °F 53.1 °F 93% 29.98 in 8.0 mi East 5.8 mph - 0.02 in Rain Rain
6:33 AM 55.9 °F 53.1 °F 90% 29.99 in 7.0 mi ENE 5.8 mph - 0.03 in Rain Light Rain
6:42 AM 55.9 °F 54.0 °F 93% 29.99 in 10.0 mi NE 4.6 mph - 0.04 in Rain Light Rain
6:53 AM 55.9 °F 54.0 °F 93% 29.99 in 10.0 mi NE 4.6 mph - 0.04 in   Overcast
7:00 AM 55.9 °F 54.0 °F 93% 29.99 in 10.0 mi ENE 3.5 mph - N/A   Overcast
7:53 AM 57.0 °F 54.0 °F 89% 30.00 in 10.0 mi NNE 3.5 mph - 0.01 in   Overcast
8:53 AM 57.0 °F 55.0 °F 93% 30.01 in 10.0 mi East 3.5 mph - N/A   Overcast
9:53 AM 57.0 °F 55.9 °F 96% 30.02 in 2.0 mi Calm Calm - 0.01 in Rain Light Rain
10:14 AM 57.0 °F 55.9 °F 96% 30.02 in 2.5 mi SE 6.9 mph - N/A Rain Rain
10:26 AM 57.0 °F 55.9 °F 96% 30.00 in 3.0 mi ENE 6.9 mph - N/A Rain Rain
10:35 AM 57.9 °F 55.9 °F 93% 30.01 in 4.0 mi SE 8.1 mph - N/A Rain Rain
10:43 AM 57.9 °F 57.0 °F 97% 29.99 in 4.0 mi ENE 10.4 mph - N/A Rain Rain
10:53 AM 57.9 °F 57.0 °F 97% 30.02 in 3.0 mi Variable 5.8 mph - N/A Rain Light Rain
11:03 AM 57.9 °F 57.0 °F 97% 30.02 in 5.0 mi NW 4.6 mph - 0.01 in Rain , Thunderstorm Light Thunderstorms and Rain
11:14 AM 57.9 °F 57.0 °F 97% 30.02 in 3.0 mi North 3.5 mph - 0.03 in Rain Rain
11:35 AM 59.0 °F 57.0 °F 93% 30.02 in 3.0 mi Variable 3.5 mph - 0.06 in Rain Light Rain
11:53 AM 59.0 °F 57.0 °F 93% 30.02 in 3.0 mi Calm Calm - 0.08 in Rain Light Rain
12:00 PM 59.0 °F 57.0 °F 93% 30.02 in 10.0 mi Calm Calm - 0.00 in Rain Light Rain
12:53 PM 60.1 °F 57.9 °F 93% 30.00 in 7.0 mi NNW 3.5 mph - 0.03 in Rain Light Rain
1:00 PM 60.1 °F 57.9 °F 93% 30.00 in 5.0 mi NNE 5.8 mph - 0.01 in Rain Light Rain
1:53 PM 62.1 °F 60.1 °F 93% 29.96 in 4.0 mi Calm Calm - 0.02 in   Mostly Cloudy
2:53 PM 62.1 °F 61.0 °F 96% 29.96 in 3.0 mi Calm Calm - 0.00 in   Overcast
3:53 PM 64.0 °F 62.1 °F 93% 29.96 in 3.0 mi NNE 6.9 mph - 0.00 in Rain Light Rain
4:53 PM 63.0 °F 62.1 °F 97% 29.96 in 9.0 mi East 5.8 mph - 0.00 in   Overcast
5:30 PM 63.0 °F 62.1 °F 97% 29.97 in 8.0 mi Calm Calm - N/A   Overcast
5:53 PM 63.0 °F 61.0 °F 93% 29.96 in 8.0 mi ESE 3.5 mph - N/A   Overcast
6:53 PM 62.1 °F 60.1 °F 93% 29.97 in 7.0 mi NNE 4.6 mph - N/A   Mostly Cloudy
7:32 PM 63.0 °F 61.0 °F 93% 29.99 in 5.0 mi Calm Calm - N/A   Overcast
7:53 PM 63.0 °F 61.0 °F 93% 29.99 in 5.0 mi NNE 3.5 mph - N/A   Overcast
8:29 PM 63.0 °F 61.0 °F 93% 30.01 in 5.0 mi Calm Calm - N/A   Overcast
8:53 PM 63.0 °F 61.0 °F 93% 30.01 in 3.0 mi Calm Calm - N/A   Overcast
9:12 PM 63.0 °F 61.0 °F 93% 30.02 in 1.8 mi NE 3.5 mph - N/A   Overcast
9:29 PM 63.0 °F 61.0 °F 93% 30.02 in 0.5 mi Calm Calm - N/A Fog Fog
9:53 PM 62.1 °F 61.0 °F 96% 30.03 in 0.5 mi ESE 4.6 mph - N/A Fog Fog
10:53 PM 62.1 °F 61.0 °F 96% 30.03 in 2.0 mi NE 3.5 mph - N/A   Overcast
11:05 PM 62.1 °F 61.0 °F 96% 30.03 in 1.0 mi East 3.5 mph - N/A   Overcast
11:15 PM 62.1 °F 61.0 °F 96% 30.03 in 0.8 mi East 4.6 mph - N/A   Mist
11:42 PM 62.1 °F 61.0 °F 96% 30.03 in 0.2 mi ENE 4.6 mph - N/A Fog Fog
11:53 PM 62.1 °F 61.0 °F 96% 30.02 in 0.2 mi East 4.6 mph - N/A Fog Fog